Weather History for KINF - June, 2013

Change the Weather History Date:

Friday, June 21, 2013

  Actual Average (KGNV) Record (KGNV)
Temperature  
Mean Temperature 79 °F 80 °F  
Max Temperature 89 °F 90 °F 100 °F (2011)
Min Temperature 69 °F 70 °F 58 °F (1965)
Degree Days  
Heating Degree Days 0 0  
Month to date heating degree days 0  
Since 1 June heating degree days 0  
Since 1 July heating degree days 1218  
Cooling Degree Days 14 15  
Month to date cooling degree days 299  
Year to date cooling degree days 809  
Since 1 June cooling degree days 299  
Growing Degree Days 29 (Base 50)    
Moisture  
Dew Point 71 °F    
Average Humidity 86    
Maximum Humidity 100    
Minimum Humidity 49    
Precipitation  
Precipitation 0.41 in 0.25 in 2.02 in (1892)
Month to date precipitation 4.69  
Year to date precipitation 20.68  
Snow  
Snow 0.00 in 0.00 in 0.00 in ()
Month to date snowfall 0.0  
Since 1 June snowfall 0.0  
Since 1 July snowfall 0.0  
Snow Depth -    
Sea Level Pressure  
Sea Level Pressure 30.11 in    
Wind  
Wind Speed 1 mph (ENE)    
Max Wind Speed 13 mph    
Max Gust Speed 17 mph    
Visibility 10 miles    
Events Rain , Thunderstorm    
T = Trace of Precipitation, MM = Missing Value Source: NWS Daily Summary

Daily Weather History Graph

Daily Weather History Graph

Search for Another Location

Airport or City:

Trip Planner

Search our weather history database for the weather conditions in past years. The results will help you decide how hot, cold, wet, or windy it might be!

Date:

Astronomy

Jun. 21, 2013 Rise Set
Actual Time 6:31 AM EDT 8:30 PM EDT
Civil Twilight 6:04 AM EDT 8:57 PM EDT
Nautical Twilight 5:31 AM EDT 9:30 PM EDT
Astronomical Twilight 4:57 AM EDT 10:05 PM EDT
Moon 6:45 PM EDT (6/21) 4:39 AM EDT (6/21)
Length of Visible Light 14h 53m
Length of Day
13h 59m
Waxing Gibbous, 95% of the Moon is Illuminated
Jun 21
Waxing Gibbous
Jun 23
Full
Jun 30
Last Quarter
Jul 8
New
Jul 15
First Quarter

Hourly Weather History & Observations

Time (EDT) Temp. Heat Index Dew Point Humidity Pressure Visibility Wind Dir Wind Speed Gust Speed Precip Events Conditions
12:15 AM 71.6 °F - 69.8 °F 94% 30.11 in 10.0 mi Calm Calm - N/A   Clear
12:35 AM 71.6 °F - 69.8 °F 94% 30.12 in 10.0 mi Calm Calm - N/A   Clear
12:55 AM 71.6 °F - 69.8 °F 94% 30.11 in 10.0 mi Calm Calm - N/A   Clear
1:15 AM 71.6 °F - 69.8 °F 94% 30.11 in 10.0 mi Calm Calm - N/A   Clear
1:35 AM 71.6 °F - 69.8 °F 94% 30.10 in 10.0 mi Calm Calm - N/A   Clear
1:55 AM 69.8 °F - 69.8 °F 100% 30.09 in 10.0 mi Calm Calm - N/A   Clear
2:15 AM 69.8 °F - 69.8 °F 100% 30.09 in 10.0 mi Calm Calm - N/A   Clear
2:35 AM 69.8 °F - 69.8 °F 100% 30.09 in 10.0 mi Calm Calm - N/A   Clear
2:55 AM 69.8 °F - 69.8 °F 100% 30.08 in 10.0 mi Calm Calm - N/A   Clear
3:15 AM 69.8 °F - 68.0 °F 94% 30.08 in 10.0 mi Calm Calm - N/A   Clear
3:35 AM 69.8 °F - 69.8 °F 100% 30.07 in 10.0 mi Calm Calm - N/A   Clear
3:55 AM 69.8 °F - 69.8 °F 100% 30.07 in 10.0 mi Calm Calm - N/A   Clear
4:15 AM 69.8 °F - 69.8 °F 100% 30.07 in 10.0 mi Calm Calm - N/A   Clear
4:35 AM 69.8 °F - 69.8 °F 100% 30.07 in 10.0 mi Calm Calm - N/A   Clear
4:55 AM 69.8 °F - 69.8 °F 100% 30.07 in 10.0 mi Calm Calm - N/A   Clear
5:15 AM 69.8 °F - 69.8 °F 100% 30.07 in 10.0 mi Calm Calm - N/A   Clear
5:35 AM 69.8 °F - 69.8 °F 100% 30.07 in 10.0 mi Calm Calm - N/A   Clear
5:55 AM 69.8 °F - 69.8 °F 100% 30.07 in 10.0 mi Calm Calm - N/A   Clear
6:15 AM 69.8 °F - 69.8 °F 100% 30.08 in 10.0 mi Calm Calm - N/A   Scattered Clouds
6:35 AM 69.8 °F - 68.0 °F 94% 30.09 in 7.0 mi Calm Calm - N/A   Scattered Clouds
6:55 AM 69.8 °F - 69.8 °F 100% 30.09 in 7.0 mi Calm Calm - N/A   Clear
7:15 AM 69.8 °F - 69.8 °F 100% 30.09 in 10.0 mi Calm Calm - N/A   Clear
7:35 AM 71.6 °F - 69.8 °F 94% 30.10 in 10.0 mi Calm Calm - N/A   Scattered Clouds
7:55 AM 71.6 °F - 71.6 °F 100% 30.11 in 10.0 mi Calm Calm - N/A   Scattered Clouds
8:15 AM 73.4 °F - 71.6 °F 94% 30.11 in 10.0 mi Calm Calm - N/A   Clear
8:35 AM 77.0 °F - 71.6 °F 83% 30.11 in 10.0 mi Calm Calm - N/A   Clear
8:55 AM 77.0 °F - 71.6 °F 83% 30.12 in 10.0 mi Calm Calm - N/A   Clear
9:15 AM 78.8 °F - 71.6 °F 78% 30.12 in 10.0 mi Calm Calm - N/A   Clear
9:35 AM 78.8 °F - 71.6 °F 78% 30.13 in 10.0 mi Calm Calm - N/A   Clear
9:55 AM 80.6 °F 83.9 °F 69.8 °F 70% 30.13 in 10.0 mi Calm Calm - N/A   Clear
10:15 AM 80.6 °F 84.6 °F 71.6 °F 74% 30.14 in 10.0 mi Calm Calm - N/A   Scattered Clouds
10:35 AM 82.4 °F 86.3 °F 69.8 °F 66% 30.13 in 10.0 mi East 3.5 mph - N/A   Scattered Clouds
10:55 AM 82.4 °F 86.3 °F 69.8 °F 66% 30.13 in 10.0 mi Calm Calm - N/A   Clear
11:15 AM 84.2 °F 88.4 °F 69.8 °F 62% 30.13 in 10.0 mi Calm Calm - N/A   Scattered Clouds
11:35 AM 86.0 °F 90.4 °F 69.8 °F 58% 30.14 in 10.0 mi Calm Calm - N/A   Scattered Clouds
11:55 AM 86.0 °F 91.8 °F 71.6 °F 62% 30.13 in 10.0 mi NNE 3.5 mph - N/A   Mostly Cloudy
12:15 PM 86.0 °F 90.4 °F 69.8 °F 58% 30.13 in 10.0 mi NE 5.8 mph - N/A   Mostly Cloudy
12:35 PM 86.0 °F 90.4 °F 69.8 °F 58% 30.12 in 10.0 mi Calm Calm - N/A   Scattered Clouds
12:55 PM 87.8 °F 92.6 °F 69.8 °F 55% 30.11 in 10.0 mi East 4.6 mph - N/A   Scattered Clouds
1:15 PM 87.8 °F 91.4 °F 68.0 °F 52% 30.11 in 10.0 mi NNE 3.5 mph - N/A   Scattered Clouds
1:35 PM 89.6 °F 94.7 °F 69.8 °F 52% 30.11 in 10.0 mi Calm Calm - N/A   Clear
1:55 PM 87.8 °F 91.4 °F 68.0 °F 52% 30.10 in 10.0 mi Calm Calm - N/A   Scattered Clouds
2:15 PM 89.6 °F 93.4 °F 68.0 °F 49% 30.09 in 10.0 mi North 4.6 mph - N/A   Clear
2:35 PM 89.6 °F 93.4 °F 68.0 °F 49% 30.08 in 10.0 mi NNW 5.8 mph - N/A Thunderstorm Thunderstorm
2:55 PM 80.6 °F 83.2 °F 68.0 °F 65% 30.11 in - SW 10.4 mph - N/A Thunderstorm Thunderstorm
3:15 PM 77.0 °F - 68.0 °F 74% 30.12 in 7.0 mi SSW 12.7 mph 17.3 mph 0.01 in Rain , Thunderstorm Heavy Thunderstorms and Rain
3:35 PM 71.6 °F - 69.8 °F 94% 30.11 in 4.0 mi SSW 3.5 mph - 0.27 in Rain , Thunderstorm Rain
3:55 PM 71.6 °F - 69.8 °F 94% 30.11 in 10.0 mi Calm Calm - 0.28 in Rain Rain
4:15 PM 73.4 °F - 71.6 °F 94% 30.09 in 10.0 mi Calm Calm - 0.01 in Rain Light Rain
4:35 PM 73.4 °F - 71.6 °F 94% 30.09 in 10.0 mi Calm Calm - N/A Rain , Thunderstorm Light Thunderstorms and Rain
4:55 PM 73.4 °F - 71.6 °F 94% 30.08 in 10.0 mi Calm Calm - N/A Rain Light Rain
5:15 PM 77.0 °F - 71.6 °F 83% 30.10 in 10.0 mi Calm Calm - N/A   Light Drizzle
5:35 PM 77.0 °F - 71.6 °F 83% 30.11 in 10.0 mi East 3.5 mph - N/A   Clear
5:55 PM 77.0 °F - 73.4 °F 89% 30.12 in 10.0 mi Calm Calm - N/A   Scattered Clouds
6:15 PM 77.0 °F - 71.6 °F 83% 30.12 in 10.0 mi East 3.5 mph - N/A Rain Light Rain
6:35 PM 77.0 °F - 71.6 °F 83% 30.11 in 10.0 mi NE 3.5 mph - N/A Rain , Thunderstorm Thunderstorms and Rain
6:55 PM 77.0 °F - 71.6 °F 83% 30.12 in 10.0 mi Calm Calm - N/A Rain , Thunderstorm Light Thunderstorms and Rain
7:15 PM 77.0 °F - 71.6 °F 83% 30.12 in 10.0 mi Calm Calm - N/A Rain , Thunderstorm Light Thunderstorms and Rain
7:35 PM 77.0 °F - 73.4 °F 89% 30.13 in 10.0 mi Calm Calm - N/A Thunderstorm Unknown
7:55 PM 75.2 °F - 73.4 °F 94% 30.13 in 10.0 mi Calm Calm - N/A Rain Rain
8:15 PM 75.2 °F - 73.4 °F 94% 30.12 in 5.0 mi Calm Calm - 0.01 in Rain Rain
8:35 PM 75.2 °F - 73.4 °F 94% 30.11 in 2.0 mi Calm Calm - 0.06 in Rain , Thunderstorm Heavy Thunderstorms and Rain
8:55 PM 73.4 °F - 73.4 °F 100% 30.11 in 5.0 mi Calm Calm - 0.12 in Rain Rain
9:15 PM 73.4 °F - 73.4 °F 100% 30.10 in 10.0 mi Calm Calm - N/A Rain Light Rain
9:35 PM 73.4 °F - 73.4 °F 100% 30.11 in 7.0 mi Calm Calm - N/A   Scattered Clouds
9:55 PM 73.4 °F - 73.4 °F 100% 30.11 in 10.0 mi Calm Calm - N/A   Clear
10:15 PM 73.4 °F - 73.4 °F 100% 30.12 in 10.0 mi Calm Calm - N/A   Clear
10:35 PM 73.4 °F - 73.4 °F 100% 30.12 in 10.0 mi Calm Calm - N/A   Clear
10:55 PM 73.4 °F - 73.4 °F 100% 30.12 in 10.0 mi Calm Calm - N/A   Clear
11:15 PM 73.4 °F - 73.4 °F 100% 30.13 in 10.0 mi Calm Calm - N/A   Clear
11:35 PM 73.4 °F - 73.4 °F 100% 30.13 in 10.0 mi Calm Calm - N/A   Clear
11:55 PM 73.4 °F - 73.4 °F 100% 30.12 in 10.0 mi Calm Calm - N/A   Clear